COSMOS 1560

Satellite information

Favourite Embed

Satellite Type and Status

PAYLOADIN ORBIT

Key statistics

Satellite COSMOS 1560 at a glance.

Uptime

14960

Days in orbit

Revolutions

≈ 12.5

Per day

Orbit

LEO

Low Earth Orbit

Inclination

74.0

Latest

Satellite identification and parameters

Extended collection of information and parameters for COSMOS 1560.

Object identification

Identified? True

Debris? False

Object name: COSMOS 1560

International designator: 1984-052B

Object number (NORAD): 14999

Object ID (CCSDS): 14999

Country: COMMONWEALTH OF INDEPENDENT STATES (CIS)

Current information (Y/N): Y

RCS size: MEDIUM

Orbital parameters

Period: 115.56 minutes

Inclination: 74.0112 deg

SMA: 7858.942 km

Apoapsis: 1491.858 km

Periapsis: 1469.755 km

RAAN: 272.132 deg

Eccentricy: 0.0014062

Argument of periapsis: 258.3485 deg

Mean anomaly: 213.7511 deg

Mean motion: 12.46110824 rev/day

Mean motion (dot): -0.00000028 rev/day2

B* drag term: -0.00008409 1/REarth

Two-line elements (TLE)

Creation date: May 12, 2025, 2:31 a.m.

Reference frame: TEME

Reference center: EARTH

Epoch: May 11, 2025, 7:14 p.m. UTC

TLE line 0: 0 COSMOS 1560

TLE line 1: 1 14999U 84052B 25131.80153572 -.00000028 00000-0 -84090-4 0 9991

TLE line 2: 2 14999 74.0112 272.1320 0014062 258.3485 213.7511 12.46110824862830

Live tracking on map

Real-time ground track for satellite COSMOS 1560.

In-orbit conjunctions

A list of the most updated potential collisions computed for object COSMOS 1560.

Target Orbit TCA Probability of collision Miss distance Type
COSMOS 1287 LEO 2025-04-08 02:59:32 0.001246887 67.0 (m) PAYLOAD

Associated space launch

Military communications satellites

COSMOS 1560 was lifted into orbit during the mission ‘Kosmos-3M | Strela-1M 281-288’, on board a Kosmos-3M space rocket.

The launch took place on May 28, 1984, 9:52 p.m. from 132/2.

For more information about the launch, click the button.

Launch to space Kosmos-3M | Strela-1M 281-288
Kosmos-3M | Strela-1M 281-288

Agency: N/A

Status: Launch Successful

Launch date: May 28, 1984, 9:52 p.m. UTC

Rocket: Kosmos-3M

Launch pad: 132/2

Location: Plesetsk Cosmodrome, Russian Federation

...

Latest news about this satellite

There are no fresh news available about this satellite. Check back as we update our databases every day.


Newsletter sign-up

Weekly statistics, charts and insights to help you stay on top of the space industry.